This is the latest recevied weather packets stored in our database for station/object EI4HQ. If no packets are shown the sender has not sent any weather packets the latest 10 day(s).
| Time | Temp. | Humidity | Pressure | Rain* | Wind** | Luminosity | Snow |
|---|---|---|---|---|---|---|---|
| 1777566423 | 10.56° C | 90% | 1015.6 hPa | 2.29 mm | - | - | - |
| 1777565883 | 10.56° C | 90% | 1015.8 hPa | 2.29 mm | - | - | - |
| 1777565343 | 10.56° C | 90% | 1015.9 hPa | 1.78 mm | - | - | - |
| 1777564803 | 10.56° C | 89% | 1016.1 hPa | 1.78 mm | - | - | - |
| 1777564443 | 10.56° C | 89% | 1016.3 hPa | 1.78 mm | - | - | - |
| 1777563903 | 10.56° C | 89% | 1016.2 hPa | 1.52 mm | - | - | - |
| 1777563363 | 10.56° C | 89% | 1016.4 hPa | 1.52 mm | - | - | - |
| 1777562823 | 10.56° C | 89% | 1016.4 hPa | 1.27 mm | - | - | - |
| 1777562283 | 10.56° C | 89% | 1016.1 hPa | 1.02 mm | - | - | - |
| 1777561743 | 10.56° C | 89% | 1016.1 hPa | 1.02 mm | - | - | - |
| 1777561203 | 10.56° C | 89% | 1016.2 hPa | 1.02 mm | - | - | - |
| 1777560843 | 10° C | 89% | 1016.2 hPa | 0.76 mm | - | - | - |
| 1777560303 | 10° C | 89% | 1016.1 hPa | 0.76 mm | - | - | - |
| 1777559763 | 10° C | 89% | 1016.1 hPa | 1.52 mm | - | - | - |
| 1777559223 | 10° C | 89% | 1016.1 hPa | 1.52 mm | - | - | - |
| 1777558683 | 10° C | 89% | 1016.5 hPa | 1.52 mm | - | - | - |
| 1777558143 | 10° C | 89% | 1016.4 hPa | 1.52 mm | - | - | - |
| 1777557603 | 10° C | 89% | 1016.6 hPa | 1.52 mm | - | - | - |
| 1777557243 | 10° C | 89% | 1016.6 hPa | 1.52 mm | - | - | - |
| 1777556703 | 10° C | 89% | 1016.7 hPa | 1.52 mm | - | - | - |
| 1777556163 | 10° C | 89% | 1016.8 hPa | 0.51 mm | - | - | - |
| 1777555623 | 10° C | 89% | 1016.8 hPa | 1.02 mm | - | - | - |
| 1777555083 | 10° C | 89% | 1016.7 hPa | 1.02 mm | - | - | - |
| 1777554543 | 10° C | 89% | 1016.7 hPa | 1.27 mm | - | - | - |
| 1777554003 | 10° C | 89% | 1016.7 hPa | 1.27 mm | - | - | - |
* Rain latest hour (hover to see other rain measurements)
** Current wind speed in m/s (hover to see current wind gust speed)